[[{"header":{"parameterUnit":"m.s-1","parameterCategory":1,"la1":30.2991,"la2":30.254,"lo1":-89.0895,"lo2":-89.0444,"dy":0.0017,"dx":0.0017,"nx":28,"ny":28,"refTime":"2026-03-04T09:00:00:Z","depth":0,"parameterNumber":2,"parameterNumberName":"U-component_of_WINDS"},"data":[0,0,0,0,0,0,0,0,0,0,0,0,0,0,0,0,0,0,0,0,0,0,0,0,0,0,0,0,0,0,0,0,0,0,0,0,0,0,0,0,0,0,0,0,0,0,0,0,0,0,0,0,0,0,0,0,0,0,-3.8946,-3.8947,0,-3.9043,-3.9045,-3.9046,-3.901,-3.9008,-3.9006,-3.9004,-3.9103,-3.9108,-3.9113,0,0,0,0,0,0,0,0,0,0,0,0,0,-3.8731,-3.8735,-3.8946,-3.8947,-3.8948,-3.9043,-3.9045,-3.9046,-3.901,-3.9008,-3.9005,-3.9003,-3.9102,-3.9107,-3.9113,0,0,0,0,0,0,0,0,0,0,0,0,0,-3.8826,-3.8737,-3.8946,-3.8942,-3.8943,-3.9043,-3.9045,-3.9046,-3.9011,-3.9008,-3.9004,-3.9001,-3.91,-3.9107,-3.9114,-3.9223,0,0,-3.9135,-3.9138,0,0,0,0,0,0,0,0,-3.8821,-3.8834,-3.8942,-3.8943,-3.8944,-3.9011,-3.9005,-3.9106,-3.9012,-3.8985,-3.9003,-3.9,-3.9075,-3.9084,-3.911,-3.9228,-3.9232,-3.9136,-3.914,-3.9143,-3.9145,0,0,0,0,0,0,0,-3.8814,-3.883,-3.8985,-3.8943,-3.8944,-3.8936,-3.8946,-3.9024,-3.9048,-3.8987,-3.8985,-3.8997,-3.9075,-3.9103,-3.9112,-3.9234,-3.9136,-3.9142,-3.9146,-3.9149,-3.9449,-3.9453,0,0,0,0,0,0,-3.8807,-3.8825,-3.8981,-3.8987,-3.8873,-3.8943,-3.8954,-3.8993,-3.9047,-3.9052,-3.9,-3.8995,-3.9093,-3.9104,-3.9115,-3.9248,-3.9143,-3.915,-3.9154,-3.9445,-3.945,-3.9454,0,0,0,0,0,0,-3.8803,-3.8822,-3.8978,-3.8906,-3.8925,-3.895,-3.8994,-3.8996,-3.9024,-3.9056,-3.906,-3.9023,-3.909,-3.9105,-3.9197,-3.9251,-3.9153,-3.916,-3.9441,-3.9447,-3.9452,-3.9513,0,0,0,0,0,0,-3.8797,-3.882,-3.8861,-3.8907,-3.8929,-3.9057,-3.8997,-3.9001,-3.9036,-3.9031,-3.9079,-3.9084,-3.9089,-3.9187,-3.9204,-3.9259,-3.9165,-3.9436,-3.9444,-3.945,-3.9506,-3.952,-3.9532,0,0,0,0,0,-3.8789,-3.8874,-3.8863,-3.8883,-3.8981,-3.906,-3.9073,-3.9077,-3.9041,-3.9083,-3.9104,-3.9083,-3.9243,-3.9197,-3.9216,-3.9273,-3.9433,-3.9442,-3.945,-3.9501,-3.9517,-3.9532,0,0,0,0,0,0,-3.8834,-3.888,-3.8869,-3.8971,-3.9012,-3.9054,-3.9107,-3.9094,-3.9146,-3.9139,-3.9142,-3.9153,-3.9248,-3.927,-3.9218,-3.9383,-3.9332,-3.9345,-3.9365,-3.9381,-3.9393,-3.9385,-3.9171,0,0,0,0,0,-3.8856,-3.8916,-3.8954,-3.904,-3.9062,-3.9081,-3.9116,-3.9116,-3.9158,-3.9175,-3.9203,-3.9246,-3.9305,-3.9345,-3.9401,-3.951,-3.9521,-3.956,-3.9572,-3.9583,-3.9593,-3.9653,-3.9671,-3.9482,-3.9481,-3.9481,0,0,-3.8901,-3.8934,-3.8972,-3.905,-3.9082,-3.9145,-3.9096,-3.9164,-3.9211,-3.9186,-3.9274,-3.9297,-3.9344,-3.9446,-3.9492,-3.9467,-3.9648,-3.9593,-3.9601,-3.9606,-3.9664,-3.9682,-3.9698,-3.9487,-3.9486,-3.9485,0,0,-3.9015,-3.9047,-3.9122,-3.9156,-3.9205,-3.9218,-3.9237,-3.9282,-3.9296,-3.9385,-3.9368,-3.9424,-3.9527,-3.9562,-3.9594,-3.9726,-3.9709,-3.9745,-3.981,-3.9869,-3.9884,-3.9897,-3.9944,-3.9961,-3.9755,-3.9755,-3.9756,0,-3.9065,-3.9159,-3.9163,-3.9234,-3.9269,-3.9251,-3.9328,-3.9361,-3.9426,-3.9451,-3.9423,-3.9553,-3.9584,-3.9694,-3.9727,-3.9753,-3.9774,-3.9738,-3.9882,-3.9895,-3.9907,-3.9952,-3.997,-3.9759,-3.9759,-3.9759,-3.9758,0,-3.9219,-3.9285,-3.934,-3.9405,-3.9447,-3.952,-3.9536,-3.9579,-3.9576,-3.9592,-3.9684,-3.9721,-3.9786,-3.9813,-3.981,-3.9923,-3.9906,-3.988,-3.9829,-3.9929,-3.9972,-3.9989,-3.9765,-3.9764,-3.9762,-3.9761,0,0,-3.936,-3.9428,-3.9449,-3.9478,-3.9533,-3.9584,-3.9659,-3.9722,-3.9759,-3.9806,-3.9868,-3.9958,-3.9935,-3.997,-3.9972,-4.0024,-4.0127,-3.9992,-3.9993,-4.0015,-4.0255,-4.0273,-4.0293,-4.0117,-4.0121,-4.0123,-4.025,0,-3.9479,-3.9608,-3.9616,-3.9733,-3.9795,-3.978,-3.9844,-3.9886,-3.9904,-3.996,-3.998,-4.0043,-4.0008,-4.003,-4.0081,-4.0104,-4.0175,-4.0095,-4.0175,-4.0178,-4.0162,-4.0315,-4.0334,-4.0452,-4.0267,-4.027,-4.0272,0,-3.9634,-3.9686,-3.981,-3.9858,-3.9884,-3.9942,-4.0002,-4.0056,-4.0103,-4.0113,-4.0155,-4.015,-4.0227,-4.0175,-4.0282,-4.0227,-4.0261,-4.0278,-4.0283,-4.0289,-4.023,-4.0324,-4.049,-4.0507,-4.0298,-4.0296,-4.0294,0,-3.9724,-3.9826,-3.9914,-3.994,-3.9998,-4.004,-4.0066,-4.011,-4.0149,-4.0202,-4.0227,-4.0289,-4.0322,-4.0371,-4.0383,-4.0344,-4.049,-4.0439,-4.05,-4.05,-4.053,-4.0528,-4.0702,-4.0554,-4.0554,-4.0554,-4.0553,0,-3.9855,-3.9931,-3.9956,-4.0009,-4.0095,-4.0104,-4.0189,-4.0213,-4.0253,-4.0312,-4.0303,-4.0359,-4.0372,-4.0431,-4.0442,-4.0529,-4.0544,-4.0555,-4.0556,-4.0555,-4.0553,-4.0576,-4.0567,-4.0558,-4.0557,-4.0556,-4.0556,0,-3.9969,-3.9989,-4.0083,-4.0132,-4.0146,-4.0207,-4.0249,-4.0301,-4.032,-4.0394,-4.0413,-4.0442,-4.0511,-4.0529,-4.0611,-4.0618,-4.0721,-4.0715,-4.0705,-4.0704,-4.0764,-4.0758,-4.0958,-4.0985,-4.0821,-4.0822,-4.0823,0,-4.005,-4.0109,-4.0165,-4.0204,-4.0232,-4.0295,-4.0335,-4.0347,-4.0389,-4.0449,-4.0494,-4.0562,-4.0617,-4.0728,-4.0757,-4.082,-4.0816,-4.0882,-4.0825,-4.0822,-4.0816,-4.0812,-4.0818,-4.0891,-4.0893,-4.0895,-4.0896,0,-4.0193,-4.02,-4.0258,-4.032,-4.0368,-4.0417,-4.0465,-4.0497,-4.0516,-4.0564,-4.0635,-4.0678,-4.0763,-4.0831,-4.0895,-4.0923,-4.0913,-4.0914,-4.0931,-4.0929,-4.0921,-4.0926,-4.0733,-4.0909,-4.0907,-4.0906,-4.0906,-4.0905,-4.0292,-4.0344,-4.0392,-4.0457,-4.0495,-4.054,-4.0592,-4.0618,-4.0677,-4.0746,-4.0751,-4.0828,-4.0876,-4.0962,-4.0994,-4.1055,-4.1035,-4.1061,-4.1067,-4.1073,-4.1078,-4.0913,-4.1067,-4.1067,-4.1066,-4.1066,-4.1066,0,-4.0433,-4.0464,-4.0524,-4.0591,-4.0643,-4.0631,-4.0683,-4.0727,-4.0795,-4.0841,-4.0896,-4.0979,-4.1045,-4.1081,-4.1147,-4.1189,-4.1187,-4.1206,-4.1202,-4.1209,-4.1092,-4.1069,-4.1208,-4.1208,-4.1208,-4.1207,-4.1207,-4.1207,-4.0513,-4.06,-4.0614,-4.0721,-4.0751,-4.0826,-4.0857,-4.09,-4.0937,-4.1029,-4.1084,-4.1107,-4.115,-4.122,-4.1281,-4.129,-4.1315,-4.1337,-4.1343,-4.1232,-4.1217,-4.1204,-4.1183,-4.1342,-4.1342,-4.1455,-4.1457,-4.1457]},{"header":{"parameterUnit":"m.s-1","parameterCategory":1,"la1":30.2991,"la2":30.254,"lo1":-89.0895,"lo2":-89.0444,"dy":0.0017,"dx":0.0017,"nx":28,"ny":28,"refTime":"2026-03-04T09:00:00:Z","depth":0,"parameterNumber":3,"parameterNumberName":"V-component_of_WINDS"},"data":[0,0,0,0,0,0,0,0,0,0,0,0,0,0,0,0,0,0,0,0,0,0,0,0,0,0,0,0,0,0,0,0,0,0,0,0,0,0,0,0,0,0,0,0,0,0,0,0,0,0,0,0,0,0,0,0,0,0,1.3875,1.3875,0,1.3883,1.3883,1.3883,1.3879,1.3879,1.3879,1.3878,1.3883,1.3884,1.3884,0,0,0,0,0,0,0,0,0,0,0,0,0,1.3855,1.3855,1.3875,1.3875,1.3875,1.3883,1.3883,1.3883,1.3879,1.3879,1.3879,1.3878,1.3883,1.3884,1.3884,0,0,0,0,0,0,0,0,0,0,0,0,0,1.3863,1.3855,1.3875,1.3874,1.3874,1.3883,1.3883,1.3883,1.3879,1.3879,1.3879,1.3878,1.3883,1.3884,1.3884,1.3893,0,0,1.3886,1.3886,0,0,0,0,0,0,0,0,1.3863,1.3864,1.3874,1.3874,1.3874,1.388,1.3878,1.3887,1.3879,1.3877,1.3878,1.3878,1.3882,1.3883,1.3885,1.3894,1.3894,1.3886,1.3886,1.3886,1.3886,0,0,0,0,0,0,0,1.3862,1.3864,1.3878,1.3874,1.3874,1.3873,1.3874,1.388,1.3881,1.3877,1.3877,1.3878,1.3882,1.3884,1.3885,1.3894,1.3886,1.3886,1.3886,1.3887,1.3912,1.3913,0,0,0,0,0,0,1.3862,1.3863,1.3878,1.3878,1.3868,1.3874,1.3875,1.3878,1.3881,1.3881,1.3879,1.3878,1.3884,1.3884,1.3885,1.3897,1.3886,1.3887,1.3887,1.3912,1.3913,1.3913,0,0,0,0,0,0,1.3861,1.3863,1.3878,1.3871,1.3872,1.3874,1.3879,1.3879,1.3881,1.3882,1.3882,1.3881,1.3884,1.3884,1.3892,1.3897,1.3887,1.3887,1.3912,1.3912,1.3913,1.3921,0,0,0,0,0,0,1.3861,1.3863,1.3867,1.3871,1.3873,1.3885,1.3879,1.3879,1.3882,1.3882,1.3884,1.3884,1.3883,1.3891,1.3893,1.3898,1.3888,1.3911,1.3912,1.3913,1.392,1.3921,1.3923,0,0,0,0,0,1.386,1.3868,1.3867,1.3869,1.3878,1.3885,1.3886,1.3886,1.3883,1.3886,1.3887,1.3884,1.3897,1.3892,1.3893,1.3899,1.3911,1.3912,1.3913,1.3919,1.3921,1.3923,0,0,0,0,0,0,1.3862,1.3868,1.3867,1.3876,1.3881,1.3884,1.3889,1.3888,1.3892,1.3891,1.389,1.389,1.3899,1.3899,1.3894,1.3909,1.3903,1.3904,1.3908,1.391,1.3911,1.391,1.3888,0,0,0,0,0,1.3864,1.387,1.3875,1.3882,1.3885,1.3887,1.389,1.389,1.3893,1.3894,1.3896,1.3899,1.3904,1.3907,1.3911,1.392,1.3921,1.3925,1.3926,1.3928,1.3928,1.3935,1.3937,1.3916,1.3916,1.3916,0,0,1.3867,1.3871,1.3875,1.3883,1.3886,1.3892,1.3888,1.3894,1.3899,1.3895,1.3903,1.3904,1.3908,1.3917,1.392,1.3918,1.3935,1.3929,1.393,1.393,1.3936,1.3938,1.394,1.3916,1.3916,1.3916,0,0,1.3876,1.388,1.3887,1.3891,1.3897,1.3898,1.39,1.3905,1.3906,1.3914,1.3912,1.3918,1.3926,1.3929,1.3931,1.3944,1.3942,1.3946,1.3953,1.3959,1.3961,1.3962,1.3967,1.3969,1.3947,1.3947,1.3947,0,1.3879,1.3889,1.3891,1.3898,1.3902,1.3901,1.3909,1.3912,1.3918,1.3921,1.3918,1.393,1.3932,1.3942,1.3946,1.3947,1.395,1.3945,1.396,1.3962,1.3963,1.3968,1.397,1.3947,1.3947,1.3947,1.3947,0,1.3893,1.39,1.3905,1.3913,1.3918,1.3925,1.3928,1.3932,1.3933,1.3935,1.3944,1.3947,1.3952,1.3955,1.3954,1.3966,1.3964,1.3961,1.3955,1.3966,1.3971,1.3972,1.3948,1.3948,1.3948,1.3948,0,0,1.3901,1.3912,1.3914,1.3919,1.3926,1.3931,1.3939,1.3946,1.395,1.3955,1.3962,1.397,1.3968,1.3971,1.3971,1.3977,1.3988,1.3973,1.3973,1.3976,1.4002,1.4004,1.4006,1.3987,1.3987,1.3987,1.4002,0,1.3911,1.3926,1.3929,1.3942,1.3949,1.3949,1.3956,1.3961,1.3964,1.397,1.3973,1.3979,1.3975,1.3978,1.3983,1.3985,1.3993,1.3984,1.3993,1.3993,1.3992,1.4008,1.401,1.4023,1.4003,1.4004,1.4004,0,1.3924,1.3932,1.3946,1.3954,1.3957,1.3963,1.3971,1.3977,1.3983,1.3985,1.399,1.399,1.3998,1.3993,1.4004,1.3999,1.4002,1.4004,1.4005,1.4005,1.3999,1.4009,1.4027,1.403,1.4007,1.4006,1.4006,0,1.393,1.3943,1.3954,1.3958,1.3967,1.3972,1.3976,1.3982,1.3987,1.3994,1.3997,1.4004,1.4008,1.4013,1.4015,1.4011,1.4027,1.4021,1.4028,1.4028,1.4031,1.4031,1.405,1.4034,1.4034,1.4034,1.4034,0,1.3941,1.3949,1.3957,1.3963,1.3973,1.3977,1.3986,1.399,1.3996,1.4003,1.4004,1.401,1.4013,1.402,1.4021,1.4031,1.4033,1.4034,1.4034,1.4034,1.4034,1.4036,1.4035,1.4034,1.4034,1.4034,1.4034,0,1.3948,1.3954,1.3965,1.3974,1.3977,1.3984,1.3992,1.3998,1.4002,1.4011,1.4013,1.4018,1.4027,1.403,1.4039,1.4041,1.4052,1.4052,1.4051,1.4051,1.4058,1.4057,1.4079,1.4082,1.4064,1.4064,1.4064,0,1.3954,1.3961,1.3972,1.3978,1.3983,1.3991,1.3997,1.4001,1.4007,1.4016,1.4021,1.403,1.4037,1.4051,1.4055,1.4063,1.4063,1.407,1.4064,1.4064,1.4063,1.4063,1.4064,1.4071,1.4071,1.4071,1.4071,0,1.3965,1.3968,1.3977,1.3987,1.3994,1.4002,1.401,1.4014,1.4019,1.4026,1.4036,1.4042,1.4053,1.4062,1.407,1.4074,1.4074,1.4074,1.4076,1.4075,1.4074,1.4075,1.4054,1.4073,1.4073,1.4072,1.4072,1.4072,1.3972,1.3979,1.3989,1.3999,1.4006,1.4013,1.402,1.4026,1.4034,1.4045,1.4047,1.4057,1.4065,1.4077,1.4081,1.4089,1.4087,1.409,1.4091,1.4091,1.4092,1.4074,1.4091,1.4091,1.409,1.409,1.409,0,1.3984,1.399,1.4,1.4012,1.402,1.4021,1.403,1.4036,1.4046,1.4054,1.4062,1.4073,1.4083,1.4089,1.4098,1.4104,1.4104,1.4106,1.4105,1.4106,1.4093,1.409,1.4106,1.4106,1.4106,1.4106,1.4106,1.4106,1.399,1.4003,1.4007,1.4023,1.4029,1.4041,1.4046,1.4053,1.406,1.4074,1.4082,1.4086,1.4094,1.4104,1.4113,1.4114,1.4118,1.412,1.4122,1.4109,1.4107,1.4106,1.4103,1.4121,1.4121,1.4134,1.4134,1.4134]}]]